COSMOS 397 DEB *

Satellite information

Favourite Embed

Satellite Type and Status

DEBRISIN ORBIT

Key statistics

Satellite COSMOS 397 DEB * at a glance.

Uptime

20016

Days in orbit

Revolutions

≈ 14.1

Per day

Orbit

LEO

Low Earth Orbit

Inclination

66.7

Latest

Satellite identification and parameters

Extended collection of information and parameters for COSMOS 397 DEB *.

Object identification

Identified? True

Debris? True

Object name: COSMOS 397 DEB *

International designator: 1971-015CB

Object number (NORAD): 5720

Object ID (CCSDS): 5720

Country: COMMONWEALTH OF INDEPENDENT STATES (CIS)

Current information (Y/N): Y

RCS size: SMALL

Orbital parameters

Period: 102.381 minutes

Inclination: 66.728 deg

SMA: 7249.465 km

Apoapsis: 941.416 km

Periapsis: 801.244 km

RAAN: 4.2883 deg

Eccentricy: 0.00966772

Argument of periapsis: 98.3538 deg

Mean anomaly: 262.8523 deg

Mean motion: 14.06513312 rev/day

Mean motion (dot): 0.00000242 rev/day2

B* drag term: 0.00018631306 1/REarth

Two-line elements (TLE)

Creation date: Dec. 13, 2025, 4:32 a.m.

Reference frame: TEME

Reference center: EARTH

Epoch: Dec. 12, 2025, 6:57 p.m. UTC

TLE line 0: 0 COSMOS 397 DEB *

TLE line 1: 1 05720U 71015CB 25346.78992338 .00000242 00000-0 18631-3 0 9997

TLE line 2: 2 05720 66.7280 4.2883 0096677 98.3538 262.8523 14.06513312735224

Live tracking on map

Real-time ground track for satellite COSMOS 397 DEB *.

In-orbit conjunctions

A list of the most updated potential collisions computed for object COSMOS 397 DEB *.

Target Orbit TCA Probability of collision Miss distance Type
FENGYUN 1C DEB SSO 2025-05-05 08:12:30 0.0001029692 422.0 (m) DEBRIS

Associated space launch

The I2P satellites were the first soviet coorbital ASAT system.

COSMOS 397 DEB * was lifted into orbit during the mission ‘Tsiklon-2 | I2P 6’, on board a Tsiklon-2 space rocket.

The launch took place on Feb. 25, 1971, 11:11 a.m. from 90/20.

For more information about the launch, click the button.

Launch to space Tsiklon-2 | I2P 6
Tsiklon-2 | I2P 6

Agency: N/A

Status: Launch Successful

Launch date: Feb. 25, 1971, 11:11 a.m. UTC

Rocket: Tsiklon-2

Launch pad: 90/20

Location: Baikonur Cosmodrome, Republic of Kazakhstan

...

Latest news about this satellite

There are no fresh news available about this satellite. Check back as we update our databases every day.


Newsletter sign-up

Weekly statistics, charts and insights to help you stay on top of the space industry.